Time,TemperatureF,DewpointF,PressureIn,WindDirection,WindDirectionDegrees,WindSpeedMPH,WindSpeedGustMPH,Humidity,HourlyPrecipIn,Conditions,Clouds,dailyrainin,SoftwareType,DateUTC
2013-09-04 00:11:00,77.0,61.0,29.84,North,360,0.0,0.0,57,0.00,,,0.00,,2013-09-04 07:11:00,
2013-09-04 00:22:00,76.0,62.0,29.85,North,360,0.0,0.0,62,0.00,,,0.00,,2013-09-04 07:22:00,
2013-09-04 00:52:00,76.0,59.0,29.85,North,360,0.0,0.0,56,0.00,,,0.00,,2013-09-04 07:52:00,
2013-09-04 01:12:00,76.0,60.0,29.85,North,360,0.0,0.0,58,0.00,,,0.00,,2013-09-04 08:12:00,
2013-09-04 01:22:00,76.0,60.0,29.85,North,360,0.0,0.0,58,0.00,,,0.00,,2013-09-04 08:22:00,
2013-09-04 01:52:00,75.0,61.0,29.85,North,360,0.0,0.0,61,0.00,,,0.00,,2013-09-04 08:52:00,
2013-09-04 02:11:00,74.0,60.0,29.85,North,360,0.0,0.0,62,0.00,,,0.00,,2013-09-04 09:11:00,
2013-09-04 02:21:00,74.0,61.0,29.85,North,360,0.0,0.0,65,0.00,,,0.00,,2013-09-04 09:21:00,
2013-09-04 02:43:00,73.0,60.0,29.85,North,360,0.0,0.0,63,0.00,,,0.00,,2013-09-04 09:43:00,
2013-09-04 02:53:00,73.0,59.0,29.85,North,360,0.0,0.0,62,0.00,,,0.00,,2013-09-04 09:53:00,
2013-09-04 03:12:00,73.0,60.0,29.85,North,360,0.0,0.0,63,0.00,,,0.00,,2013-09-04 10:12:00,
2013-09-04 03:23:00,73.0,59.0,29.84,North,360,0.0,0.0,61,0.00,,,0.00,,2013-09-04 10:23:00,
2013-09-04 03:42:00,74.0,59.0,29.84,North,360,0.0,0.0,59,0.00,,,0.00,,2013-09-04 10:42:00,
2013-09-04 03:52:00,74.0,59.0,29.84,North,360,0.0,0.0,59,0.00,,,0.00,,2013-09-04 10:52:00,
2013-09-04 04:12:00,74.0,58.0,29.84,North,360,0.0,0.0,57,0.00,,,0.00,,2013-09-04 11:12:00,
2013-09-04 05:11:00,74.0,61.0,29.84,North,360,0.0,0.0,63,0.00,,,0.00,,2013-09-04 12:11:00,
2013-09-04 05:21:00,73.0,60.0,29.84,North,360,0.0,0.0,63,0.00,,,0.00,,2013-09-04 12:21:00,
2013-09-04 05:42:00,73.0,60.0,29.84,North,360,0.0,0.0,64,0.00,,,0.00,,2013-09-04 12:42:00,
2013-09-04 05:52:00,74.0,60.0,29.84,North,360,0.0,1.0,62,0.00,,,0.00,,2013-09-04 12:52:00,
2013-09-04 06:21:00,74.0,59.0,29.85,North,360,0.0,0.0,59,0.00,,,0.00,,2013-09-04 13:21:00,
2013-09-04 06:52:00,73.0,59.0,29.85,North,360,0.0,0.0,61,0.00,,,0.00,,2013-09-04 13:52:00,
2013-09-04 07:11:00,73.0,59.0,29.85,North,360,0.0,0.0,61,0.00,,,0.00,,2013-09-04 14:11:00,
2013-09-04 07:21:00,73.0,58.0,29.86,WSW,248,0.0,0.0,60,0.00,,,0.00,,2013-09-04 14:21:00,
2013-09-04 09:43:00,83.0,64.0,29.88,ENE,59,0.0,0.0,53,0.00,,,0.00,,2013-09-04 16:43:00,
2013-09-04 09:53:00,83.0,64.0,29.88,ESE,103,0.0,1.0,52,0.00,,,0.00,,2013-09-04 16:53:00,
2013-09-04 10:13:00,83.0,65.0,29.88,SE,135,0.0,1.0,55,0.00,,,0.00,,2013-09-04 17:13:00,
2013-09-04 10:22:00,84.0,66.0,29.89,SE,135,0.0,1.0,55,0.00,,,0.00,,2013-09-04 17:22:00,
2013-09-04 10:52:00,85.0,65.0,29.89,NNE,27,0.0,1.0,52,0.00,,,0.00,,2013-09-04 17:52:00,
2013-09-04 11:12:00,85.0,65.0,29.89,South,174,0.0,1.0,51,0.00,,,0.00,,2013-09-04 18:12:00,
2013-09-04 11:21:00,85.0,64.0,29.88,South,178,0.0,1.0,49,0.00,,,0.00,,2013-09-04 18:21:00,
2013-09-04 11:42:00,87.0,64.0,29.88,SW,227,0.0,1.0,47,0.00,,,0.00,,2013-09-04 18:42:00,
2013-09-04 11:52:00,87.0,64.0,29.88,SSE,161,0.0,1.0,46,0.00,,,0.00,,2013-09-04 18:52:00,
2013-09-04 12:11:00,87.0,64.0,29.87,WSW,239,0.0,3.0,46,0.00,,,0.00,,2013-09-04 19:11:00,
2013-09-04 12:22:00,89.0,65.0,29.87,SW,226,0.0,1.0,45,0.00,,,0.00,,2013-09-04 19:22:00,
2013-09-04 12:42:00,90.0,66.0,29.88,SW,223,0.0,1.0,46,0.00,,,0.00,,2013-09-04 19:42:00,
2013-09-04 12:52:00,89.0,65.0,29.88,South,179,0.0,1.0,45,0.00,,,0.00,,2013-09-04 19:52:00,
2013-09-04 13:11:00,90.0,65.0,29.87,South,191,0.0,1.0,44,0.00,,,0.00,,2013-09-04 20:11:00,
2013-09-04 13:22:00,90.0,65.0,29.86,SW,221,0.0,1.0,44,0.00,,,0.00,,2013-09-04 20:22:00,
2013-09-04 20:45:00,70.0,64.0,29.82,East,80,3.0,7.0,82,0.00,,,0.00,,2013-09-05 03:45:00,
2013-09-04 20:54:00,70.0,65.0,29.82,East,80,3.0,5.0,83,0.00,,,0.00,,2013-09-05 03:54:00,
2013-09-04 21:13:00,70.0,65.0,29.82,East,80,1.0,4.0,84,0.00,,,0.00,,2013-09-05 04:13:00,
2013-09-04 21:24:00,70.0,65.0,29.83,East,82,0.0,5.0,84,0.00,,,0.00,,2013-09-05 04:24:00,
2013-09-04 21:44:00,71.0,65.0,29.83,East,82,1.0,3.0,81,0.00,,,0.00,,2013-09-05 04:44:00,
2013-09-04 21:53:00,72.0,65.0,29.83,East,84,0.0,3.0,78,0.00,,,0.00,,2013-09-05 04:53:00,
2013-09-04 22:12:00,72.0,64.0,29.84,East,84,0.0,1.0,76,0.00,,,0.00,,2013-09-05 05:12:00,
2013-09-04 22:23:00,70.0,64.0,29.84,WNW,289,2.0,7.0,80,0.00,,,0.00,,2013-09-05 05:23:00,
2013-09-04 22:43:00,68.0,63.0,29.84,WNW,300,0.0,1.0,85,0.00,,,0.00,,2013-09-05 05:43:00,
2013-09-04 22:52:00,68.0,64.0,29.85,WNW,301,0.0,1.0,86,0.00,,,0.00,,2013-09-05 05:52:00,
2013-09-04 23:12:00,67.0,63.0,29.84,WNW,302,0.0,1.0,87,0.00,,,0.00,,2013-09-05 06:12:00,
2013-09-04 23:21:00,67.0,64.0,29.84,WNW,302,0.0,2.0,89,0.00,,,0.00,,2013-09-05 06:21:00,
2013-09-04 23:52:00,66.0,62.0,29.84,WNW,302,0.0,1.0,88,0.00,,,0.00,,2013-09-05 06:52:00,